TimeCDT,TemperatureF,Dew PointF,Humidity,Sea Level PressureIn,VisibilityMPH,Wind Direction,Wind SpeedMPH,Gust SpeedMPH,PrecipitationIn,Events,Conditions,WindDirDegrees,DateUTC
12:58 AM,50.2,46.2,86,30.13,10.0,South,6.9,-,N/A,,Clear,190,2013-10-08 05:58:00
1:58 AM,49.3,46.6,90,30.14,10.0,South,6.9,-,N/A,,Clear,190,2013-10-08 06:58:00
2:58 AM,49.1,46.0,89,30.14,10.0,SSW,6.9,-,N/A,,Clear,200,2013-10-08 07:58:00
3:58 AM,48.6,46.4,92,30.14,10.0,South,5.8,-,N/A,,Clear,180,2013-10-08 08:58:00
4:58 AM,48.9,46.8,92,30.14,10.0,South,5.8,-,N/A,,Clear,180,2013-10-08 09:58:00
5:58 AM,48.2,45.9,92,30.15,10.0,South,5.8,-,N/A,,Clear,170,2013-10-08 10:58:00
6:58 AM,46.9,45.3,94,30.14,10.0,South,5.8,-,N/A,,Clear,170,2013-10-08 11:58:00
7:58 AM,48.0,46.0,93,30.15,10.0,South,5.8,-,N/A,,Clear,170,2013-10-08 12:58:00
8:58 AM,55.4,50.5,84,30.15,10.0,South,6.9,-,N/A,,Clear,180,2013-10-08 13:58:00
9:58 AM,62.4,51.8,68,30.16,10.0,South,10.4,-,N/A,,Clear,180,2013-10-08 14:58:00
10:58 AM,68.2,50.9,54,30.14,10.0,South,13.8,-,N/A,,Clear,180,2013-10-08 15:58:00
11:58 AM,71.1,48.6,45,30.14,10.0,South,12.7,-,N/A,,Clear,190,2013-10-08 16:58:00
12:58 PM,73.4,47.5,40,30.12,10.0,South,13.8,-,N/A,,Clear,180,2013-10-08 17:58:00
1:58 PM,73.9,48.6,41,30.10,10.0,South,16.1,-,N/A,,Clear,180,2013-10-08 18:58:00
2:58 PM,74.5,47.3,38,30.08,10.0,South,15.0,18.4,N/A,,Clear,170,2013-10-08 19:58:00
3:58 PM,74.8,48.0,39,30.07,10.0,South,12.7,-,N/A,,Clear,180,2013-10-08 20:58:00
4:58 PM,73.6,49.3,42,30.07,10.0,South,15.0,-,N/A,,Clear,180,2013-10-08 21:58:00
5:58 PM,71.2,50.4,48,30.06,10.0,SSE,6.9,-,N/A,,Clear,160,2013-10-08 22:58:00
6:58 PM,65.5,49.8,57,30.08,10.0,SSE,5.8,-,N/A,,Clear,160,2013-10-08 23:58:00
7:58 PM,62.6,50.0,63,30.08,10.0,SE,5.8,-,N/A,,Clear,140,2013-10-09 00:58:00
8:58 PM,61.2,50.9,69,30.08,10.0,SSE,5.8,-,N/A,,Clear,150,2013-10-09 01:58:00
9:55 PM,58.3,50.9,76,30.07,10.0,SSE,5.8,-,N/A,,Clear,150,2013-10-09 02:55:00
10:55 PM,57.7,50.5,77,30.07,10.0,SSE,5.8,-,N/A,,Clear,150,2013-10-09 03:55:00
11:55 PM,57.9,49.8,74,30.07,10.0,SSE,9.2,-,N/A,,Clear,160,2013-10-09 04:55:00